This is the latest recevied weather packets stored in our database for station/object IZ0VWB-3. If no packets are shown the sender has not sent any weather packets the latest 10 day(s).
| Time | Temp. | Humidity | Pressure | Rain* | Wind** | Luminosity | Snow |
|---|---|---|---|---|---|---|---|
| 1777660713 | 13.33° C | 37% | 1009.4 hPa | 0 mm | - | - | - |
| 1777660113 | 13.89° C | 36% | 1009.4 hPa | 0 mm | - | - | - |
| 1777659512 | 13.89° C | 37% | 1009.5 hPa | 0 mm | - | - | - |
| 1777658912 | 13.89° C | 35% | 1009.4 hPa | 0 mm | - | - | - |
| 1777658311 | 14.44° C | 34% | 1009.2 hPa | 0 mm | - | - | - |
| 1777657712 | 15° C | 33% | 1009.1 hPa | 0 mm | - | - | - |
| 1777657112 | 15° C | 31% | 1009 hPa | 0 mm | - | - | - |
| 1777656513 | 15.56° C | 31% | 1009.1 hPa | 0 mm | - | - | - |
| 1777655913 | 15.56° C | 32% | 1009.1 hPa | 0 mm | - | - | - |
| 1777655306 | 16.11° C | 32% | 1009.1 hPa | 0 mm | - | - | - |
| 1777654704 | 16.11° C | 30% | 1009 hPa | 0 mm | - | - | - |
| 1777654105 | 16.67° C | 29% | 1009 hPa | 0 mm | - | - | - |
| 1777653506 | 16.67° C | 29% | 1008.8 hPa | 0 mm | - | - | - |
| 1777652906 | 17.22° C | 32% | 1008.7 hPa | 0 mm | - | - | - |
| 1777652304 | 17.22° C | 32% | 1008.8 hPa | 0 mm | - | - | - |
| 1777651705 | 17.78° C | 35% | 1008.7 hPa | 0 mm | - | - | - |
| 1777651105 | 17.22° C | 35% | 1008.7 hPa | 0 mm | - | - | - |
| 1777650506 | 17.22° C | 35% | 1008.7 hPa | 0 mm | - | - | - |
| 1777649904 | 17.22° C | 35% | 1008.6 hPa | 0 mm | - | - | - |
| 1777649304 | 17.22° C | 36% | 1008.7 hPa | 0 mm | - | - | - |
| 1777648704 | 17.22° C | 36% | 1008.7 hPa | 0 mm | - | - | - |
| 1777648105 | 17.22° C | 35% | 1008.8 hPa | 0 mm | - | - | - |
| 1777647504 | 17.78° C | 36% | 1008.8 hPa | 0 mm | - | - | - |
| 1777646905 | 17.78° C | 37% | 1008.7 hPa | 0 mm | - | - | - |
| 1777646303 | 17.78° C | 37% | 1008.7 hPa | 0 mm | - | - | - |
* Rain latest hour (hover to see other rain measurements)
** Current wind speed in m/s (hover to see current wind gust speed)